• în Republica Moldova
  • Lista ţărilor
  • Pe 7 zile
  • Temperatura apei
  • Hartă satelitară
  • Meteo pe hartă
  • Widget-uri
  • user-avatar
    Intrare

    Meteo pe oră la Quito

    Astăzi, 24 Ianuarie, Miercuri

    Timp Temperatura Precipitaţii Vânt Presiune Umiditate
    00:00 +18°C° 0,6 mm 1 m/s 621 mmHg 94%
    01:00 +18°C° 0,6 mm 1 m/s 621 mmHg 95%
    02:00 +16°C° 0,1 mm 1 m/s 621 mmHg 96%
    03:00 +16°C° 0,1 mm 1 m/s 620 mmHg 96%
    04:00 +16°C° 0,1 mm 1 m/s 620 mmHg 97%
    05:00 +16°C° 0 mm 2 m/s 621 mmHg 96%
    06:00 +16°C° 0 mm 2 m/s 621 mmHg 96%
    07:00 +17°C° 0 mm 2 m/s 621 mmHg 95%
    08:00 +18°C° 0,1 mm 2 m/s 622 mmHg 91%
    09:00 +18°C° 0,1 mm 2 m/s 622 mmHg 88%
    10:00 +19°C° 0,1 mm 3 m/s 622 mmHg 84%
    11:00 +20°C° 0,6 mm 3 m/s 622 mmHg 83%
    12:00 +20°C° 0,6 mm 3 m/s 622 mmHg 82%
    13:00 +21°C° 0,6 mm 3 m/s 622 mmHg 81%
    14:00 +21°C° 0,4 mm 3 m/s 621 mmHg 82%
    15:00 +21°C° 0,4 mm 3 m/s 621 mmHg 82%
    16:00 +20°C° 0,4 mm 3 m/s 621 mmHg 82%
    17:00 +19°C° 0,2 mm 3 m/s 620 mmHg 86%
    18:00 +18°C° 0,2 mm 2 m/s 620 mmHg 91%
    19:00 +17°C° 0,2 mm 2 m/s 620 mmHg 95%
    20:00 +16°C° 0 mm 2 m/s 621 mmHg 95%
    21:00 +16°C° 0 mm 2 m/s 621 mmHg 96%
    22:00 +16°C° 0 mm 2 m/s 621 mmHg 96%
    23:00 +16°C° 0 mm 2 m/s 621 mmHg 96%

    Mâine, 25 Ianuarie, Joi

    Timp Temperatura Precipitaţii Vânt Presiune Umiditate
    00:00 +15°C° 0 mm 2 m/s 621 mmHg 96%
    01:00 +15°C° 0 mm 2 m/s 621 mmHg 96%
    02:00 +15°C° 0,1 mm 1 m/s 620 mmHg 96%
    03:00 +15°C° 0,1 mm 1 m/s 620 mmHg 96%
    04:00 +15°C° 0,1 mm 1 m/s 620 mmHg 97%
    05:00 +16°C° 0,2 mm 1 m/s 621 mmHg 96%
    06:00 +16°C° 0,2 mm 1 m/s 621 mmHg 95%
    07:00 +16°C° 0,2 mm 1 m/s 621 mmHg 94%
    08:00 +19°C° 0,5 mm 1 m/s 622 mmHg 88%
    09:00 +21°C° 0,5 mm 1 m/s 623 mmHg 83%
    10:00 +23°C° 0,5 mm 1 m/s 623 mmHg 77%
    11:00 +23°C° 1,9 mm 1 m/s 623 mmHg 77%
    12:00 +24°C° 1,9 mm 1 m/s 622 mmHg 78%
    13:00 +24°C° 1,9 mm 1 m/s 622 mmHg 78%
    14:00 +23°C° 2,5 mm 1 m/s 621 mmHg 81%
    15:00 +22°C° 2,5 mm 1 m/s 620 mmHg 84%
    16:00 +21°C° 2,5 mm 2 m/s 620 mmHg 86%
    17:00 +20°C° 1,4 mm 1 m/s 620 mmHg 89%
    18:00 +19°C° 1,4 mm 1 m/s 620 mmHg 91%
    19:00 +18°C° 1,4 mm 1 m/s 620 mmHg 93%
    20:00 +18°C° 0,3 mm 1 m/s 621 mmHg 94%
    21:00 +18°C° 0,3 mm 1 m/s 621 mmHg 94%
    22:00 +16°C° 0,3 mm 1 m/s 622 mmHg 95%
    23:00 +16°C° 0,1 mm 1 m/s 621 mmHg 95%

    Poimâine, 26 Ianuarie, Vineri

    Timp Temperatura Precipitaţii Vânt Presiune Umiditate
    00:00 +16°C° 0,1 mm 1 m/s 621 mmHg 96%
    01:00 +16°C° 0,1 mm 1 m/s 621 mmHg 96%
    02:00 +16°C° 0 mm 1 m/s 620 mmHg 96%
    03:00 +16°C° 0 mm 1 m/s 620 mmHg 96%
    04:00 +16°C° 0 mm 1 m/s 620 mmHg 96%
    05:00 +16°C° 0 mm 1 m/s 620 mmHg 95%
    06:00 +16°C° 0 mm 1 m/s 621 mmHg 94%
    07:00 +18°C° 0 mm 1 m/s 621 mmHg 93%
    08:00 +20°C° 0,3 mm 1 m/s 622 mmHg 87%
    09:00 +22°C° 0,3 mm 1 m/s 623 mmHg 80%
    10:00 +24°C° 0,3 mm 1 m/s 624 mmHg 74%
    11:00 +24°C° 1,6 mm 1 m/s 623 mmHg 74%
    12:00 +25°C° 1,6 mm 1 m/s 622 mmHg 74%
    13:00 +25°C° 1,6 mm 1 m/s 622 mmHg 74%
    14:00 +24°C° 2,5 mm 1 m/s 621 mmHg 77%
    15:00 +24°C° 2,5 mm 1 m/s 620 mmHg 80%
    16:00 +23°C° 2,5 mm 1 m/s 620 mmHg 84%
    17:00 +21°C° 1,3 mm 1 m/s 620 mmHg 86%
    18:00 +18°C° 1,3 mm 0 m/s 620 mmHg 88%
    19:00 +17°C° 1,3 mm 0 m/s 620 mmHg 90%
    20:00 +16°C° 0,2 mm 0 m/s 621 mmHg 90%
    21:00 +16°C° 0,2 mm 0 m/s 621 mmHg 91%
    22:00 +16°C° 0,2 mm 0 m/s 622 mmHg 91%
    23:00 +16°C° 0,1 mm 0 m/s 621 mmHg 92%

    27 Ianuarie, Sâmbătă

    Timp Temperatura Precipitaţii Vânt Presiune Umiditate
    00:00 +18°C° 0,1 mm 1 m/s 621 mmHg 93%
    01:00 +16°C° 0,1 mm 1 m/s 620 mmHg 94%
    02:00 +16°C° 0,1 mm 1 m/s 620 mmHg 94%
    03:00 +15°C° 0,1 mm 0 m/s 620 mmHg 94%
    04:00 +15°C° 0,1 mm 0 m/s 620 mmHg 95%
    05:00 +15°C° 0 mm 0 m/s 620 mmHg 94%
    06:00 +16°C° 0 mm 0 m/s 621 mmHg 93%
    07:00 +16°C° 0 mm 0 m/s 621 mmHg 93%
    08:00 +20°C° 0,3 mm 1 m/s 622 mmHg 87%
    09:00 +22°C° 0,3 mm 1 m/s 623 mmHg 81%
    10:00 +24°C° 0,3 mm 1 m/s 623 mmHg 75%
    11:00 +24°C° 0,7 mm 1 m/s 623 mmHg 72%
    12:00 +25°C° 0,7 mm 1 m/s 622 mmHg 69%
    13:00 +25°C° 0,7 mm 2 m/s 622 mmHg 66%
    14:00 +25°C° 1,2 mm 1 m/s 621 mmHg 70%
    15:00 +24°C° 1,2 mm 1 m/s 621 mmHg 73%
    16:00 +24°C° 1,2 mm 1 m/s 620 mmHg 77%
    17:00 +22°C° 0,7 mm 1 m/s 620 mmHg 81%
    18:00 +21°C° 0,7 mm 1 m/s 620 mmHg 85%
    19:00 +19°C° 0,7 mm 1 m/s 620 mmHg 90%
    20:00 +19°C° 0,6 mm 1 m/s 621 mmHg 91%
    21:00 +19°C° 0,6 mm 1 m/s 621 mmHg 91%
    22:00 +18°C° 0,6 mm 1 m/s 622 mmHg 92%
    23:00 +18°C° 0 mm 1 m/s 621 mmHg 93%

    28 Ianuarie, Duminică

    Timp Temperatura Precipitaţii Vânt Presiune Umiditate
    00:00 +18°C° 0 mm 1 m/s 621 mmHg 94%
    01:00 +16°C° 0 mm 1 m/s 620 mmHg 94%
    02:00 +16°C° 0,1 mm 1 m/s 620 mmHg 94%
    03:00 +15°C° 0,1 mm 0 m/s 620 mmHg 94%
    04:00 +15°C° 0,1 mm 0 m/s 620 mmHg 94%
    05:00 +16°C° 0,1 mm 0 m/s 620 mmHg 93%
    06:00 +16°C° 0,1 mm 0 m/s 621 mmHg 93%
    07:00 +16°C° 0,1 mm 0 m/s 621 mmHg 92%
    08:00 +18°C° 0,1 mm 0 m/s 622 mmHg 86%
    09:00 +22°C° 0,1 mm 1 m/s 622 mmHg 80%
    10:00 +23°C° 0,1 mm 1 m/s 623 mmHg 75%
    11:00 +24°C° 0,8 mm 1 m/s 622 mmHg 72%
    12:00 +25°C° 0,8 mm 1 m/s 622 mmHg 70%
    13:00 +25°C° 0,8 mm 2 m/s 621 mmHg 68%
    14:00 +25°C° 1,8 mm 1 m/s 621 mmHg 73%
    15:00 +24°C° 1,8 mm 1 m/s 620 mmHg 78%
    16:00 +23°C° 1,8 mm 1 m/s 620 mmHg 82%
    17:00 +22°C° 1,2 mm 1 m/s 620 mmHg 85%
    18:00 +20°C° 1,2 mm 1 m/s 620 mmHg 88%
    19:00 +19°C° 1,2 mm 1 m/s 620 mmHg 91%
    20:00 +19°C° 0,3 mm 1 m/s 621 mmHg 91%
    21:00 +18°C° 0,3 mm 1 m/s 621 mmHg 92%
    22:00 +18°C° 0,3 mm 1 m/s 621 mmHg 92%
    23:00 +18°C° 0 mm 1 m/s 621 mmHg 93%

    29 Ianuarie, Luni

    Timp Temperatura Precipitaţii Vânt Presiune Umiditate
    00:00 +18°C° 0 mm 1 m/s 620 mmHg 94%
    01:00 +16°C° 0 mm 1 m/s 620 mmHg 94%
    02:00 +16°C° 0 mm 1 m/s 620 mmHg 95%
    03:00 +16°C° 0 mm 1 m/s 620 mmHg 95%
    04:00 +16°C° 0 mm 1 m/s 620 mmHg 95%
    05:00 +16°C° 0 mm 1 m/s 620 mmHg 94%
    06:00 +18°C° 0 mm 1 m/s 621 mmHg 92%
    07:00 +16°C° 0 mm 0 m/s 622 mmHg 91%
    08:00 +19°C° 0,3 mm 0 m/s 622 mmHg 84%
    09:00 +21°C° 0,3 mm 0 m/s 623 mmHg 76%
    10:00 +24°C° 0,3 mm 0 m/s 624 mmHg 68%
    11:00 +24°C° 0,8 mm 0 m/s 623 mmHg 66%
    12:00 +25°C° 0,8 mm 0 m/s 623 mmHg 65%
    13:00 +27°C° 0,8 mm 1 m/s 622 mmHg 63%
    14:00 +27°C° 1,9 mm 1 m/s 622 mmHg 67%
    15:00 +26°C° 1,9 mm 1 m/s 621 mmHg 70%
    16:00 +25°C° 1,9 mm 1 m/s 621 mmHg 74%
    17:00 +23°C° 2,1 mm 1 m/s 621 mmHg 79%
    18:00 +21°C° 2,1 mm 1 m/s 621 mmHg 85%
    19:00 +19°C° 2,1 mm 1 m/s 621 mmHg 91%
    20:00 +19°C° 0,7 mm 1 m/s 621 mmHg 91%
    21:00 +19°C° 0,7 mm 1 m/s 621 mmHg 91%
    22:00 +19°C° 0,7 mm 1 m/s 622 mmHg 92%
    23:00 +18°C° 0,1 mm 1 m/s 621 mmHg 92%
    Arată mai mult